Terug naar catalogus

ATLAS 5 CENTAUR DEB

LostHEO
NORAD 52970·DEBRIS·🇺🇸 United States

Gelanceerd Oct 17, 2018 vanaf Cape Canaveral Space Force Station

Loading…

Volgende Passages (komende 24 uur)

TLE

VerouderdSource: Space-Track

Epoch: Mar 8, 2024, 18:54 UTC

1 52970U 18079GU  24068.78750252  .00000032  00000-0  00000+0 0  9998
2 52970  12.3763  64.9172 5244536 283.9202  25.1172  2.00746876 14509

Volg ATLAS 5 CENTAUR DEB in realtime met AllMySat

Download on the App Store